User: anonymous   Login
Location: Byszew
(52.1813°N, 19.2693°E)
Time: 05:30:02
(UTC+00:00)
Language:

ARGOS - Orbit

View from above orbital plane
View from above orbital plane
View from above satellite
View from above satellite

Ground track
Ground track

The orbit data is extracted from the following two-line orbital elements,

1 25634U 99008A   21134.64087697 -.00000020  00000-0  98216-5 0  9998
2 25634  98.4215 163.9864 0010944  42.9304 317.2725 14.19394457150952
Epoch (UTC): 14 May 2021 15:22:51
Eccentricity: 0.0010944
inclination: 98.4215°
perigee height: 819 km
apogee height: 835 km
right ascension of ascending node: 163.9864°
argument of perigee: 42.9304°
revolutions per day: 14.19394457
mean anomaly at epoch: 317.2725°
orbit number at epoch: 15095

The dashed part of the orbit path shows where the satellite is in the earth's shadow,  

DLR